Regional Weather Roundup
Issued by NWS State College, PA

Home | Current Version | Previous Version | Text Only | Print | Product List | Glossary On
Versions: 1 2 3 4 5 6 7 8 9 10 11 12 13 14 15 16 17 18 19 20 21 22 23 24 25 26 27 28 29 30 31 32 33 34 35 36 37 38 39 40 41 42 43 44 45 46 47 48 49 50
000
ASUS41 KCTP 290810
RWRCTP

REGIONAL WEATHER ROUNDUP
NATIONAL WEATHER SERVICE STATE COLLEGE PA
300 AM EST THU JAN 29 2015

Note: "fair" indicates few or no clouds below 12,000 feet with no
significant weather and/or obstructions to visibility.

* = STATION THAT DOES NOT REPORT PRECIPITATION /E.G. RAIN...SNOW...ETC/
    THUNDER OR FOG.

PAZ002>004-007>009-013>016-020>023-029>032-290900-
WESTERN PENNSYLVANIA

CITY           SKY/WX    TMP DP  RH WIND       PRES   REMARKS
ERIE           CLOUDY    25   7  46 S12       30.17F WCI  14
MEADVILLE      CLOUDY    20   9  62 VRB3      30.16S
FRANKLIN*      CLOUDY    18   9  68 SE8       30.18F WCI   7
NEW CASTLE     FAIR      19  11  71 CALM      30.20F
BEAVER COUNTY  NOT AVBL
BUTLER*        CLOUDY    18  10  73 E5        30.21S WCI  11
PITTSBURGH INT CLOUDY    20  13  74 CALM      30.19F
PITTSBURGH     CLOUDY    17   8  67 SE8       30.18F WCI   7
INDIANA*       MOCLDY     5   3  92 E5        30.25F WCI  -4
LATROBE        MOCLDY    10   9  92 CALM      30.23F
WASHINGTON CO* CLOUDY    18  12  79 CALM      30.20S
$$

PAZ004>006-010>012-017>019-024>028-033>037-041-042-045-046-049>053-290900-
CENTRAL PENNSYLVANIA

CITY           SKY/WX    TMP DP  RH WIND       PRES   REMARKS
BRADFORD       PTCLDY     1  -4  79 CALM      30.15S
DUBOIS         PTCLDY    10   4  76 CALM      30.18R
CLEARFIELD     PTCLDY     2  -3  80 N3        30.23F
JOHNSTOWN      PTCLDY    16   2  54 S7        30.16R WCI   6
ALTOONA        PTCLDY     8   3  80 CALM      30.24S
STATE COLLEGE  PTCLDY    10   5  80 CALM      30.27S
WILLIAMSPORT   PTCLDY     7  -1  70 CALM      30.33S
SELINSGROVE    PTCLDY     1  -4  79 CALM      30.34R
FT INDIANTOWN  PTCLDY    11   0  60 W1        30.31S
CAPITAL CITY   PTCLDY     2   2 100 CALM      30.32F
HARRISBURG     PTCLDY    16   7  67 NW8       30.31F WCI   5
YORK           PTCLDY     5  -1  76 CALM      30.30F
$$

PAZ038>040-043-044-047-048-054-055-060>062-067>071-290900-
EASTERN PENNSYLVANIA

CITY           SKY/WX    TMP DP  RH WIND       PRES   REMARKS
SCRANTON       PTCLDY     9   2  73 E5        30.28S WCI   1
MOUNT POCONO   PTCLDY     8   1  73 N3        30.18R
ALLENTOWN      PTCLDY    19   3  49 W5        30.29F WCI  12
QUAKERTOWN*    MOSUNNY    9   1  72 CALM      30.28F
READING        PTCLDY    13   1  59 CALM      30.30S
LANCASTER      PTCLDY    13   3  64 W7        30.30S WCI   3
COATESVILLE    MOSUNNY   23   5  46 NW6       30.28S
POTTSTOWN      PTCLDY    10   1  67 CALM      30.31S
BLUE BELL      PTCLDY    16   7  67 CALM      30.30S
DOYLESTOWN     PTCLDY    18   3  52 N3        30.29R
WILLOW GROVE   NOT AVBL
NORTH PHILA    PTCLDY    22   1  40 N3        30.32S
PHILADELPHIA   PTCLDY    24   3  40 N7        30.32S
$$



USA.gov is the U.S. government's official web portal to all federal, state and local government web resources and services.